TIANLIAN 2-02

Last updated on Wed Jul 09 2025 00:02:47 GMT+0000 (Coordinated Universal Time)

1 50005U 21124A 25189.55286464 .00000002 00000+0 00000+0 0 9995 2 50005 0.0964 253.5349 0001012 306.0314 97.1837 1.00273173 13174
UTC large
Height (km)
Speed (km/s)
/
Latitude / Longitude
Inclination (degrees)
Orbital Period (minutes)
Azimuth
Elevation
Range (km)
Doppler Factor

Next 0 passes for location: London (51.5072 / 0.1276)

Sorry there are no passes over London.